Weather History for Lakeville, MN

Change the Weather History Date:

Monday, October 7, 2013

  Actual Average Record
Temperature  
Mean Temperature 52 °F -  
Max Temperature 64 °F 61 °F 87 °F (2003)
Min Temperature 41 °F 39 °F 21 °F (2001)
Degree Days  
Heating Degree Days 12    
Growing Degree Days 2 (Base 50)    
Moisture  
Dew Point 42 °F    
Average Humidity 76    
Maximum Humidity 100    
Minimum Humidity 40    
Precipitation  
Precipitation 0.00 in - - ()
Sea Level Pressure  
Sea Level Pressure 29.93 in    
Wind  
Wind Speed 5 mph (WNW)    
Max Wind Speed 10 mph    
Max Gust Speed -    
Visibility 10 miles    
Events      
Averages and records for this station are not official NWS values.
T = Trace of Precipitation, MM = Missing Value Source: NWS Daily Summary

Daily Weather History Graph

Daily Weather History Graph

Search for Another Location

Airport:

Trip Planner

Search our weather history database for the weather conditions in past years. The results will help you decide how hot, cold, wet, or windy it might be!

Date:

Astronomy

Oct. 07, 2013 Rise Set
Actual Time 7:18 AM CDT 6:42 PM CDT
Civil Twilight 6:49 AM CDT 7:11 PM CDT
Nautical Twilight 6:15 AM CDT 7:44 PM CDT
Astronomical Twilight 5:41 AM CDT 8:18 PM CDT
Moon 10:16 AM CDT (10/7) 8:19 PM CDT (10/7)
Length of Visible Light 12h 21m
Length of Day
11h 23m
Waxing Crescent, 9% of the Moon is Illuminated
Oct 7
Waxing Crescent
Oct 11
First Quarter
Oct 18
Full
Oct 26
Last Quarter
Nov 3
New

Hourly Weather History & Observations

Time (CDT) Temp. Windchill Dew Point Humidity Pressure Visibility Wind Dir Wind Speed Gust Speed Precip Events Conditions
12:11 AM 42.8 °F 39.3 °F 42.8 °F 100% 29.84 in 10.0 mi WNW 5.8 mph - N/A   Clear
12:31 AM 44.6 °F 40.2 °F 42.8 °F 93% 29.84 in 10.0 mi WNW 8.1 mph - N/A   Clear
12:52 AM 44.6 °F 41.4 °F 42.8 °F 93% 29.85 in 10.0 mi West 5.8 mph - N/A   Clear
1:11 AM 42.8 °F 38.6 °F 42.8 °F 100% 29.85 in 10.0 mi WNW 6.9 mph - N/A   Clear
1:31 AM 42.8 °F 38.6 °F 41.0 °F 93% 29.85 in 10.0 mi WNW 6.9 mph - N/A   Clear
1:52 AM 42.8 °F 39.3 °F 41.0 °F 93% 29.85 in 10.0 mi West 5.8 mph - N/A   Clear
2:11 AM 42.8 °F 40.1 °F 41.0 °F 93% 29.85 in 10.0 mi West 4.6 mph - N/A   Clear
2:31 AM 42.8 °F 38.6 °F 41.0 °F 93% 29.85 in 10.0 mi West 6.9 mph - N/A   Clear
2:51 AM 44.6 °F 43.1 °F 41.0 °F 87% 29.84 in 10.0 mi WSW 3.5 mph - N/A   Clear
3:12 AM 42.8 °F - 39.2 °F 87% 29.85 in 10.0 mi Calm Calm - N/A   Scattered Clouds
3:31 AM 44.6 °F 42.2 °F 41.0 °F 87% 29.84 in 10.0 mi WSW 4.6 mph - N/A   Overcast
3:51 AM 44.6 °F 42.2 °F 41.0 °F 87% 29.84 in 10.0 mi WSW 4.6 mph - N/A   Unknown
4:12 AM 44.6 °F 41.4 °F 41.0 °F 87% 29.84 in 10.0 mi WSW 5.8 mph - N/A   Overcast
4:31 AM 44.6 °F 40.7 °F 41.0 °F 87% 29.83 in 10.0 mi West 6.9 mph - N/A   Mostly Cloudy
4:51 AM 42.8 °F 41.1 °F 39.2 °F 87% 29.84 in 10.0 mi West 3.5 mph - N/A   Scattered Clouds
5:12 AM 42.8 °F 41.1 °F 39.2 °F 87% 29.85 in 10.0 mi WSW 3.5 mph - N/A   Clear
5:31 AM 42.8 °F 39.3 °F 39.2 °F 87% 29.85 in 10.0 mi West 5.8 mph - N/A   Clear
5:51 AM 42.8 °F 39.3 °F 39.2 °F 87% 29.85 in 10.0 mi West 5.8 mph - N/A   Clear
6:12 AM 42.8 °F 39.3 °F 39.2 °F 87% 29.86 in 10.0 mi West 5.8 mph - N/A   Clear
6:31 AM 42.8 °F 39.3 °F 39.2 °F 87% 29.86 in 10.0 mi West 5.8 mph - N/A   Clear
6:51 AM 42.8 °F 39.3 °F 39.2 °F 87% 29.87 in 10.0 mi West 5.8 mph - N/A   Clear
7:12 AM 41.0 °F 39.0 °F 39.2 °F 93% 29.87 in 10.0 mi WNW 3.5 mph - N/A   Clear
7:31 AM 41.0 °F 37.1 °F 39.2 °F 93% 29.88 in 10.0 mi West 5.8 mph - N/A   Clear
7:51 AM 42.8 °F 39.3 °F 39.2 °F 87% 29.89 in 10.0 mi West 5.8 mph - N/A   Clear
8:12 AM 42.8 °F 40.1 °F 41.0 °F 93% 29.90 in 10.0 mi West 4.6 mph - N/A   Clear
8:32 AM 44.6 °F 42.2 °F 42.8 °F 93% 29.91 in 10.0 mi West 4.6 mph - N/A   Clear
8:51 AM 46.4 °F 44.3 °F 42.8 °F 87% 29.91 in 10.0 mi WNW 4.6 mph - N/A   Clear
9:12 AM 48.2 °F - 44.6 °F 87% 29.92 in 10.0 mi WNW 3.5 mph - N/A   Clear
9:31 AM 50.0 °F - 44.6 °F 82% 29.93 in 10.0 mi NW 4.6 mph - N/A   Clear
9:52 AM 51.8 °F - 44.6 °F 76% 29.94 in 10.0 mi West 3.5 mph - N/A   Clear
10:11 AM 53.6 °F - 46.4 °F 77% 29.95 in 10.0 mi West 3.5 mph - N/A   Clear
10:31 AM 53.6 °F - 46.4 °F 77% 29.95 in 10.0 mi NW 3.5 mph - N/A   Clear
10:52 AM 55.4 °F - 44.6 °F 67% 29.95 in 10.0 mi WNW 4.6 mph - N/A   Clear
11:11 AM 57.2 °F - 44.6 °F 63% 29.96 in 10.0 mi WNW 4.6 mph - N/A   Clear
11:32 AM 59.0 °F - 44.6 °F 59% 29.96 in 10.0 mi NW 4.6 mph - N/A   Clear
11:51 AM 60.8 °F - 42.8 °F 52% 29.96 in 10.0 mi WNW 4.6 mph - N/A   Clear
12:11 PM 60.8 °F - 42.8 °F 52% 29.96 in 10.0 mi NW 6.9 mph - N/A   Clear
12:32 PM 60.8 °F - 39.2 °F 45% 29.96 in 10.0 mi NW 5.8 mph - N/A   Clear
12:51 PM 62.6 °F - 41.0 °F 45% 29.97 in 10.0 mi WNW 6.9 mph - N/A   Clear
1:12 PM 62.6 °F - 41.0 °F 45% 29.97 in 10.0 mi NW 5.8 mph - N/A   Clear
1:31 PM 62.6 °F - 42.8 °F 48% 29.96 in 10.0 mi NW 4.6 mph - N/A   Clear
1:51 PM 62.6 °F - 42.8 °F 48% 29.96 in 10.0 mi WNW 4.6 mph - N/A   Clear
2:12 PM 62.6 °F - 42.8 °F 48% 29.96 in 10.0 mi NNW 4.6 mph - N/A   Clear
2:31 PM 62.6 °F - 42.8 °F 48% 29.96 in 10.0 mi West 5.8 mph - N/A   Clear
2:52 PM 62.6 °F - 41.0 °F 45% 29.97 in 10.0 mi WNW 10.4 mph - N/A   Clear
3:11 PM 64.4 °F - 42.8 °F 45% 29.97 in 10.0 mi NW 3.5 mph - N/A   Clear
3:31 PM 64.4 °F - 41.0 °F 42% 29.97 in 10.0 mi WNW 5.8 mph - N/A   Clear
3:51 PM 64.4 °F - 39.2 °F 40% 29.97 in 10.0 mi WNW 6.9 mph - N/A   Clear
4:11 PM 64.4 °F - 41.0 °F 42% 29.96 in 10.0 mi WNW 9.2 mph - N/A   Clear
4:32 PM 64.4 °F - 39.2 °F 40% 29.97 in 10.0 mi WNW 5.8 mph - N/A   Clear
4:51 PM 64.4 °F - 39.2 °F 40% 29.97 in 10.0 mi WNW 4.6 mph - N/A   Clear
5:12 PM 62.6 °F - 39.2 °F 42% 29.97 in 10.0 mi WNW 4.6 mph - N/A   Clear
5:31 PM 62.6 °F - 39.2 °F 42% 29.96 in 10.0 mi Calm Calm - N/A   Clear
5:51 PM 62.6 °F - 42.8 °F 48% 29.96 in 10.0 mi Calm Calm - N/A   Clear
6:12 PM 57.2 °F - 42.8 °F 59% 29.96 in 10.0 mi Calm Calm - N/A   Clear
6:31 PM 55.4 °F - 44.6 °F 67% 29.96 in 10.0 mi Calm Calm - N/A   Clear
6:52 PM 55.4 °F - 44.6 °F 67% 29.97 in 10.0 mi Calm Calm - N/A   Clear
7:11 PM 53.6 °F - 44.6 °F 72% 29.97 in 10.0 mi Calm Calm - N/A   Clear
7:31 PM 51.8 °F - 44.6 °F 76% 29.98 in 10.0 mi Calm Calm - N/A   Clear
7:52 PM 46.4 °F - 44.6 °F 93% 29.98 in 10.0 mi Calm Calm - N/A   Clear
8:11 PM 46.4 °F - 42.8 °F 87% 29.98 in 10.0 mi Calm Calm - N/A   Clear
8:32 PM 44.6 °F - 42.8 °F 93% 29.98 in 10.0 mi Calm Calm - N/A   Clear
8:51 PM 42.8 °F - 42.8 °F 100% 29.99 in 10.0 mi Calm Calm - N/A   Clear
9:11 PM 44.6 °F - 42.8 °F 93% 29.99 in 10.0 mi Calm Calm - N/A   Clear
9:32 PM 42.8 °F - 42.8 °F 100% 29.99 in 10.0 mi Calm Calm - N/A   Clear
9:51 PM 42.8 °F - 42.8 °F 100% 29.99 in 10.0 mi Calm Calm - N/A   Clear
10:12 PM 41.0 °F - 41.0 °F 100% 29.99 in 10.0 mi Calm Calm - N/A   Clear
10:31 PM 41.0 °F - 41.0 °F 100% 29.99 in 10.0 mi Calm Calm - N/A   Clear
10:51 PM 41.0 °F - 39.2 °F 93% 29.99 in 10.0 mi Calm Calm - N/A   Clear
11:11 PM 44.6 °F 43.1 °F 42.8 °F 93% 29.98 in 10.0 mi SSE 3.5 mph - N/A   Clear
11:31 PM 44.6 °F - 41.0 °F 87% 29.98 in 10.0 mi Calm Calm - N/A   Clear
11:51 PM 42.8 °F - 39.2 °F 87% 29.98 in 10.0 mi Calm Calm - N/A   Clear